Location: ?
(34.8204°N, 135.7811°E)
Time: 21:48:04
(UTC+00:00)

Daily predictions for brighter satellites

Satellite Brightness Start Highest point End
(mag) Time Altitude Azimuth Time Altitude Azimuth Time Altitude Azimuth
Lacrosse 5 4.5 18:47:20 11° NNE 18:47:20 11° NNE 18:47:37 10° NNE
Cosmos 1605 Rocket 4.2 18:45:46 10° S 18:52:32 64° ENE 18:58:02 10° NNE
Cosmos 1980 Rocket 3.4 18:50:43 32° NNE 18:52:13 37° ENE 18:57:26 10° SE
CZ-2C R/B 3.8 18:54:05 10° NNE 19:05:26 - S 18:56:59 32° NE
Cosmos 923 Rocket 4.4 19:04:18 59° E 19:04:18 59° E 19:08:59 10° SSE
Sakura Rocket 4.4 19:04:05 47° S 19:04:05 47° S 19:09:08 10° ESE
ATLAS CENTAUR R/B 4.1 19:09:07 10° SSE 19:12:56 23° ESE 19:16:44 10° ENE
Cosmos 2369 4.2 19:17:45 46° SSW 19:17:45 46° SSW 19:21:48 10° S
Cosmos 1898 Rocket 3.4 19:19:03 79° NNE 19:19:03 79° NNE 19:24:00 10° NNE
OAO 2 Rocket 3.2 19:26:48 87° NNW 19:26:51 87° N 19:31:57 10° E
Cosmos 1937 Rocket 3.5 19:23:30 10° S 19:28:38 76° ESE 19:33:46 10° NNE
STARLINK-59 4.3 19:28:30 50° SSE 19:28:47 51° SE 19:32:48 10° NE
Cosmos 2360 4.1 19:28:30 54° NNW 19:29:54 83° WSW 19:35:36 10° SSE
SJ 16-02 2.5 19:32:14 32° N 19:32:14 32° N 19:34:39 10° NNE
STARLINK-57 4.2 19:30:07 51° SSE 19:30:29 53° SE 19:34:32 10° NE
Cosmos 1697 Rocket 3.1 19:32:35 43° SW 19:32:35 43° SW 19:36:50 10° S
CZ-3B R/B 3.4 19:32:59 23° S 19:33:42 24° SSE 19:39:40 10° ESE
STARLINK-28 4.1 19:33:19 54° SSE 19:33:46 58° SE 19:37:50 10° NE
STARLINK-53 4.0 19:33:49 54° SSE 19:34:18 58° SE 19:38:23 10° NE
STARLINK-75 3.7 19:35:09 68° SSE 19:35:19 69° SE 19:39:26 10° NE
Cosmos 2278 3.6 19:34:54 59° W 19:35:25 61° WSW 19:41:01 10° S
STARLINK-54 3.9 19:36:32 56° S 19:37:04 63° SE 19:41:11 10° NE
Meteor PRIRODA 4.2 19:34:43 10° NNE 19:38:19 56° E 19:41:53 10° S
Meteor 1-27 4.3 19:37:42 50° WNW 19:38:37 56° W 19:44:16 10° S
STARLINK-37 3.7 19:40:40 57° S 19:41:21 71° SE 19:45:30 10° NE
Chandra Rocket (1) 4.4 19:31:30 29° WSW 19:41:54 62° S 19:48:00 10° ESE
STARLINK-55 3.8 19:41:11 53° SSW 19:41:58 69° SE 19:46:05 10° NE
STARLINK-24 3.7 19:42:26 55° SSW 19:43:14 73° SE 19:47:22 10° NE
CZ-4B R/B 4.0 19:38:58 10° N 19:43:28 73° WNW 19:47:53 10° SSW
STARLINK-34 3.7 19:42:55 56° SSW 19:43:42 74° SE 19:47:49 10° NE
Cosmos 858 Rocket 4.3 19:40:00 14° SSW 19:44:24 72° WNW 19:49:35 10° NNE
STARLINK-81 3.8 19:44:05 45° SSW 19:45:11 69° SE 19:49:19 10° NE
STARLINK-77 3.7 19:47:17 44° SSW 19:48:29 75° SE 19:52:38 10° NE
Meteor 2-2 Rocket 4.1 19:44:43 19° NNW 19:48:45 62° W 19:54:18 10° S
STARLINK-25 3.6 19:48:58 43° SSW 19:50:14 78° SE 19:54:23 10° NE
In-Cosmos 22 Rocket 4.0 19:45:38 10° S 19:50:58 87° W 19:56:26 10° N
STARLINK-71 3.5 19:51:01 49° SW 19:52:04 90° SE 19:56:14 10° NE
Cosmos 2082 Rocket 4.0 19:56:04 15° NNW 19:56:04 15° NNW 19:57:37 10° N
STARLINK-79 3.6 19:52:05 41° SW 19:53:28 84° SE 19:57:37 10° NE
CZ-3B R/B 3.3 19:49:45 12° SW 19:53:58 21° S 19:57:08 10° SE
STARLINK-78 3.5 19:53:45 40° SW 19:55:11 88° SE 19:59:20 10° NE
NOSS 3-3 (A) 4.3 19:54:15 36° WNW 19:55:18 39° NW 20:01:16 10° NNE
NOSS 3-3 (C) 4.3 19:54:20 36° WNW 19:55:24 39° NW 20:01:23 10° NNE
STARLINK-49 3.5 19:56:56 37° SW 19:58:29 87° NW 20:02:39 10° NE
STARLINK-27 3.5 19:58:31 36° SW 20:00:08 84° NW 20:04:17 10° NE
Cosmos 2100 Rocket 3.9 19:54:50 10° S 20:01:02 83° W 20:07:14 10° N
STARLINK-74 3.5 20:00:08 35° SW 20:01:50 81° NW 20:05:59 10° NE
Yuri Rocket 4.5 19:59:52 19° SW 20:03:03 35° S 20:07:09 10° ESE
STARLINK-39 3.5 20:01:46 34° SW 20:03:30 78° NW 20:07:39 10° NE
Cosmos 1892 2.5 20:00:03 10° SSW 20:03:48 67° W 20:07:35 10° N
STARLINK 3.5 20:03:19 33° WSW 20:05:06 75° NW 20:09:15 10° NE
Okean O Rocket 3.0 20:01:07 10° NNE 20:05:13 41° E 20:09:19 10° S
STARLINK-42 3.5 20:04:13 34° WSW 20:05:54 70° NW 20:10:02 10° NE
STARLINK-21 3.5 20:05:34 31° WSW 20:07:25 71° NW 20:11:34 10° NE
MOS 1-B 4.3 20:03:43 10° NNE 20:09:33 89° E 20:15:20 10° SSW
Meteor 2-20 Rocket 4.4 20:03:43 10° N 20:09:54 80° W 20:16:03 10° S
STARLINK-45 3.6 20:08:49 32° WSW 20:10:29 58° NW 20:14:35 10° NE
COSMOS 2455 3.5 20:05:52 10° NNW 20:11:45 54° ENE 20:17:36 10° SE
Cosmos 1484 Rocket 2.7 20:08:44 10° N 20:12:43 65° WNW 20:16:41 10° SSW
STARLINK-76 3.6 20:11:22 27° WSW 20:13:27 61° NW 20:17:33 10° NE
Cosmos 372 Rocket 4.1 20:08:36 10° S 20:13:45 75° ESE 20:18:53 10° NNE
Cosmos 2112 Rocket 4.4 20:10:36 21° NW 20:13:49 43° WSW 20:18:49 10° S
STARLINK 3.6 20:12:59 26° WSW 20:15:07 59° NW 20:19:13 10° NE
Shenzhou-11 Module 3.7 20:14:57 18° N 20:15:23 19° NNE 20:17:26 10° ENE
Cosmos 1802 Rocket 4.0 20:10:10 10° S 20:16:36 83° W 20:23:03 10° N
STARLINK-32 3.7 20:14:36 25° WSW 20:16:48 57° NW 20:20:54 10° NE
STARLINK-40 3.7 20:16:13 24° WSW 20:18:28 55° NW 20:22:32 10° NE
Cosmos 158 Rocket 3.8 20:14:49 11° NNW 20:19:26 59° WSW 20:24:12 10° S
Cosmos 2298 Rocket 3.9 20:14:13 10° SSW 20:19:31 83° WNW 20:24:50 10° NNE
Cosmos 1356 Rocket 4.2 20:18:18 24° NW 20:19:58 32° W 20:23:44 10° SSW
STARLINK-44 3.7 20:17:50 23° WSW 20:20:10 53° NW 20:24:14 10° NE
SKYMED 2 3.5 20:15:56 10° SSE 20:20:16 89° ENE 20:24:38 10° NNW
Cosmos 1869 4.1 20:19:43 27° WNW 20:20:22 29° W 20:23:46 10° SSW
Cosmos 1680 Rocket 4.3 20:18:17 22° WNW 20:20:35 31° W 20:25:11 10° SSW
STARLINK-36 3.8 20:19:25 22° WSW 20:21:49 51° NW 20:25:52 10° NE
OAO 3 Rocket 3.1 20:19:47 24° W 20:22:41 88° N 20:27:28 10° E
Cosmos 1825 2.4 20:20:41 10° S 20:24:24 69° E 20:28:09 10° NNE
Cosmos 1151 Rocket 3.4 20:23:39 10° N 20:28:01 67° E 20:32:18 10° SSE
STARLINK-35 4.0 20:25:47 19° WSW 20:28:26 44° NW 20:32:24 10° NNE
Cosmos 1328 Rocket 3.7 20:24:16 10° N 20:28:35 75° E 20:32:52 10° S
SJ-12 3.9 20:25:22 10° N 20:29:27 57° WNW 20:33:30 10° SSW
Cosmos 2061 Rocket 3.9 20:23:40 10° SSW 20:29:55 74° W 20:36:09 10° N
STARLINK-51 4.0 20:27:25 18° WSW 20:30:08 43° NW 20:34:06 10° NNE
Cosmos 2360 Rocket 4.0 20:25:16 10° N 20:30:15 30° ENE 20:35:11 10° ESE
BREEZE-M DEB (TANK) 4.4 20:28:43 12° NNW 20:30:25 17° NNE 20:32:22 10° ENE
BREEZE-M DEB (TANK) 1.7 20:29:22 22° NW 20:30:32 56° NE 20:33:11 10° ESE
SL-16 R/B 2.4 20:25:22 10° NNW 20:31:04 77° ENE 20:36:43 10° SSE
STARLINK-30 4.0 20:29:02 17° WSW 20:31:49 41° NW 20:35:46 10° NNE
ATLAS 2AS CENTAUR R/B 3.4 20:24:31 10° NNW 20:31:58 59° NE 20:38:44 10° SE
STARLINK-33 4.1 20:30:37 17° WSW 20:33:28 40° NW 20:37:23 10° NNE
STARLINK-50 4.1 20:32:12 16° WSW 20:35:07 39° NW 20:39:02 10° NNE
Cosmos 2173 Rocket 4.2 20:29:45 10° SSW 20:35:44 46° W 20:41:40 10° N
Cosmos 1980 Rocket 3.2 20:32:34 15° WNW 20:35:57 25° WSW 20:40:29 10° SSW
CZ-2C R/B 3.8 20:33:43 10° NNW 20:36:19 15° WNW 20:36:19 15° WNW
STARLINK-56 4.2 20:35:24 15° W 20:38:26 36° NW 20:42:17 10° NNE
Starlink (trailer) 4.3 20:37:09 14° W 20:40:17 35° NW 20:44:07 10° NNE
Cosmos 2322 Rocket 2.4 20:34:42 10° NNW 20:40:23 78° ENE 20:46:04 10° SSE
STARLINK-38 4.3 20:38:38 13° W 20:41:48 34° NW 20:45:36 10° NNE
STARLINK-65 4.4 20:40:14 13° W 20:43:30 33° NW 20:47:17 10° NNE
Cosmos 1437 2.5 20:42:08 10° S 20:45:10 82° W 20:48:13 10° N
Cosmos 1408 Rocket 3.8 20:42:00 10° SSW 20:46:06 44° W 20:50:15 10° N
Cosmos 2233 Rocket 4.3 20:43:53 10° S 20:50:06 75° E 20:56:24 10° N
Abrixas rocket 3.2 20:48:19 14° W 20:50:20 25° NNW 20:52:55 10° NNE
ATLAS CENTAUR R/B 2.3 20:47:06 10° WSW 20:51:41 38° NW 20:56:12 10° NNE
Longmarch 3A Rocket 3.1 20:50:27 10° SW 20:51:49 16° S 20:53:46 10° SE
Cosmos 1500 Rocket 3.6 20:47:51 10° S 20:52:18 87° E 20:56:47 10° N
Cosmos 972 Rocket 4.4 20:47:58 10° S 20:52:51 70° ESE 20:58:08 10° NNE
Cosmos 1864 Rocket 4.5 20:47:00 10° SSW 20:53:01 63° W 20:59:08 10° N
ALOS 2.6 20:51:03 10° N 20:55:26 41° WNW 20:59:48 10° SW
COSMOS 2487 3.2 20:53:32 10° SW 20:56:36 29° WNW 20:59:40 10° N
Sakura Rocket 4.4 20:52:22 10° WSW 20:57:47 37° SSW 21:01:55 10° SE
Cosmos 2151 4.5 20:59:30 10° WSW 21:02:15 17° WNW 21:05:01 10° NW
SMAP 3.9 20:57:41 10° NNE 21:02:17 58° E 21:06:51 10° S
Delta 2 Rocket 3.8 20:58:31 10° WSW 21:03:13 86° S 21:08:32 10° E
Cosmos 1933 3.3 21:01:16 10° N 21:05:17 79° W 21:09:16 10° S
COSMO-SKYMED 1 3.7 21:04:52 10° SSW 21:08:22 24° W 21:11:54 10° NW
FENGYUN 3A 4.2 21:06:14 10° N 21:11:07 36° WNW 21:15:59 10° SW
OAO 2 Rocket 3.6 21:06:33 10° W 21:11:38 65° SSW 21:16:36 10° ESE
CZ-4B R/B 3.5 21:06:41 10° N 21:11:46 43° WNW 21:16:56 10° SW
